Погода в Грядах

Россия / Курская область     51°48′51″N   34°59′20″E
темп.,
°C
ветер,
м/с
пор.,
м/с
влажн.,
%
обл.,
%
осадки,
мм/ч
давл.,
гПа
погр.,
м
8 марта, пн
пн800:00−1з7149498 0.4 1006800
03:00−2зюз489799 2.1 1005472
06:00−3зсз2694100 1.9 1005304
09:00−3з51189100 1.9 1005488
12:00−2зсз578785 0.1 1007908
15:00−1зсз587880 0.3 10071111
18:00−4зсз358752 0.1 100898
21:00−6з349172 0.1 101072
9 марта, вт
вт900:00−8сз339397 0.0 101152
03:00−9сз479297 0.0 1012181
06:00−9сз379581 0.1 1013237
09:00−10ссз479480 0.1 1016297
12:00−8ссз578999 0.1 1018637
15:00−6ссз4583100 0.1 1019937
18:00−9сз358698 0.1 1020120
21:00−12сз339062 0.1 102346
10 марта, ср
ср1000:00−13сз339247 0.0 102437
03:00−15сз239323 0.0 102625
06:00−15сз22940 0.0 102621
09:00−13сз11934 0.0 102771
12:00−9зюз238382 0.0 1027370
15:00−6з348191 0.0 1026603
18:00−7ююз229599 0.1 102653
21:00−9всв6995100 1.9 1028336
11 марта, чт
чт1100:00−14всв5993100 0.6 1030311
03:00−19всв479080 0.6 1031153
06:00−22всв36860 0.0 1032106
09:00−20в36820 0.0 1033165
12:00−14в35810 0.0 1033268
15:00−11вюв35790 0.0 1032350
18:00−14в34880 0.0 103252
21:00−16вюв46880 0.0 103293
12 марта, пт
пт1200:00−16юв48830 0.0 1031128
03:00−13ююв510801 0.0 1030194
06:00−12ююв5137750 0.0 1028290
09:00−9ююв8157375 0.0 1026468
12:00−5ю91572100 0.0 1024782
15:00−3ю101670100 0.0 10221078
18:00−3ю91777100 0.1 10201041
21:00−4ю111892100 0.6 1019990